Location: Wien
(48.2082°N, 16.3738°E)
Time: 04:22:48
(UTC+02:00)

Transit 4A - Visible Passes

Search period start: 13 July 2024 00:00
Search period end: 23 July 2024 00:00
Orbit: 870 x 973 km, 66.8° (Epoch: 12 July)

Date Brightness Start Highest point End Pass type
(mag) Time Alt. Az. Time Alt. Az. Time Alt. Az.
13 Jul 9.7 01:34:18 10° NNW 01:39:32 30° NE 01:44:51 10° E visible
13 Jul 7.8 03:20:24 10° NW 03:26:22 71° WSW 03:32:29 10° SSE visible
13 Jul 10.7 22:08:58 10° NW 22:11:42 13° N 22:14:27 10° NNE visible
13 Jul 10.5 23:57:18 10° NNW 00:00:43 15° NNE 00:04:11 10° NE visible
14 Jul 9.2 01:43:14 10° NNW 01:48:48 39° NE 01:54:28 10° ESE visible
14 Jul 8.1 03:29:32 10° NW 03:35:19 51° WSW 03:41:14 10° S visible
14 Jul 10.7 22:18:51 10° NNW 22:21:18 13° N 22:23:47 10° NNE visible
15 Jul 10.4 00:06:17 10° NNW 00:10:15 18° NNE 00:14:14 10° ENE visible
15 Jul 8.7 01:52:11 10° NNW 01:58:00 51° NE 02:03:58 10° ESE visible
15 Jul 8.5 03:38:47 10° NW 03:44:11 36° WSW 03:49:44 10° S visible
15 Jul 10.6 22:28:30 10° NNW 22:30:55 12° N 22:33:22 10° NNE visible
16 Jul 10.1 00:15:14 10° NNW 00:19:42 21° NNE 00:24:14 10° ENE visible
16 Jul 8.1 02:01:08 10° NNW 02:07:07 69° NE 02:13:14 10° SE visible
16 Jul 8.9 03:48:11 10° NW 03:53:00 25° WSW 03:57:54 10° SSW visible
16 Jul 10.5 22:37:52 10° NNW 22:40:32 13° N 22:43:13 10° NE visible
17 Jul 9.8 00:24:09 10° NNW 00:29:05 26° NE 00:34:08 10° E visible
17 Jul 7.8 02:10:09 10° NW 02:16:11 88° SW 02:21:43 13° SSE visible
17 Jul 9.3 03:57:54 10° WNW 04:01:44 18° WSW 04:05:06 12° SW visible
17 Jul 10.4 22:47:03 10° NNW 22:50:08 14° NNE 22:53:15 10° NE visible
18 Jul 9.4 00:33:04 10° NNW 00:38:25 33° NE 00:43:52 10° ESE visible
18 Jul 7.9 02:19:14 10° NW 02:25:10 65° WSW 02:29:10 22° SSE visible
18 Jul 9.7 04:08:30 10° W 04:10:24 11° W 04:12:19 10° WSW visible
18 Jul 10.3 22:56:05 10° NNW 22:59:41 16° NNE 23:03:19 10° ENE visible
19 Jul 8.9 00:42:00 10° NNW 00:47:40 42° NE 00:53:27 10° ESE visible
19 Jul 8.2 02:28:22 10° NW 02:34:05 46° WSW 02:36:53 28° S visible
19 Jul 10.1 23:05:03 10° NNW 23:09:10 19° NNE 23:13:22 10° ENE visible
20 Jul 8.4 00:50:56 10° NNW 00:56:51 56° NE 01:01:21 18° ESE visible
20 Jul 8.6 02:37:39 10° NW 02:42:56 33° WSW 02:44:46 27° SW visible
20 Jul 10.4 21:27:24 10° NNW 21:29:54 13° N 21:32:25 10° NNE visible
20 Jul 9.8 23:13:59 10° NNW 23:18:37 23° NNE 23:23:19 10° E visible
21 Jul 8.0 00:59:55 10° NNW 01:05:57 75° NE 01:09:22 28° SE visible
21 Jul 9.1 02:47:07 10° WNW 02:51:43 23° WSW 02:52:48 22° WSW visible
21 Jul 10.3 21:36:42 10° NNW 21:39:30 13° N 21:42:20 10° NE visible
21 Jul 9.5 23:22:54 10° NNW 23:27:59 28° NE 23:33:10 10° E visible
22 Jul 7.8 01:08:57 10° NW 01:14:59 81° WSW 01:17:29 38° SSE visible
22 Jul 9.5 02:57:00 10° WNW 03:00:26 16° WSW 03:00:56 16° WSW visible
22 Jul 10.2 21:45:49 10° NNW 21:49:05 15° NNE 21:52:22 10° NE visible
22 Jul 9.1 23:31:48 10° NNW 23:37:17 35° NE 23:42:16 13° ESE visible
